Regional Weather Roundup
Issued by NWS Goodland, KS

Home | Current Version | Previous Version | Text Only | Print | Product List | Glossary On
Versions: 1 2 3 4 5 6 7 8 9 10 11 12 13 14 15 16 17 18 19 20 21 22 23 24 25 26 27 28 29 30 31 32 33 34 35 36 37 38 39 40 41 42 43 44 45 46 47 48 49 50
000
ASUS43 KGLD 231908
RWRGLD

GOODLAND FORECAST AREA HOURLY WEATHER ROUNDUP
NATIONAL WEATHER SERVICE GOODLAND KS
100 PM MDT SUN JUL 23 2017

...OFFICIAL OBSERVATIONS...

CITY           SKY/WX    TMP DP  RH WIND       PRES   REMARKS
GOODLAND KS    SUNNY     89  53  29 E13       30.12S
HILL CITY KS   SUNNY     92  64  39 E7        30.03F
IMPERIAL NEB   SUNNY     94  45  18 E7        30.08F
MCCOOK NEB     SUNNY     91  57  31 VRB5      30.05F
AKRON CO       SUNNY     89  42  19 SE9G18    30.17F
BURLINGTON CO  SUNNY     88  53  30 SE13      30.15F
LIMON CO       SUNNY     84  49  29 E7G21     30.21F
$$

...UNOFFICIAL OBSERVATIONS...

CITY           SKY/WX    TMP DP  RH WIND       PRES   REMARKS
LENORA KS        N/A     89  32  13 MISG        N/A
NORTON KS      SUNNY     93  55  27 NE8       30.04
SHARON SPRINGS   N/A     88  63  43 CALM        N/A
TRENTON NEB      N/A     92  32  12 CALM        N/A
KIT CARSON CO    N/A     88  51  27 MISG        N/A
YUMA CO        FAIR      88  32  13 SE9G16    30.13F
$$




USA.gov is the U.S. government's official web portal to all federal, state and local government web resources and services.